Showing default

KUWAITSAT-1, 55103

Orbit data source: Space-Track

KUWAITSAT-1, 55103 is a payload satellite owned by Kuwait U. (KW) in SSO that was launched on Tue, 03 Jan 2023 UTC via an FALCON 9 launch vehicle from the Air Force Eastern Test Range (AFETR). Payload-class satellites include a variety of spacecraft equipped with specific instruments for various scientific and technological missions. These include communications satellites like Starlink; space stations such as the ISS; scientific satellites like the Hubble; Earth observation satellites from companies like Planet Labs, Umbra, and HawkEye 360; GPS; miniature CubeSats for education and research; and military/defense satellites.

Loading next visibility...
Identifier
55103, 2023-001CY
Orbit
SSO
Country
Flag of KWKW / KWT
Related business
Manufacturer
Kuwait U.
Mission
Operational Amateur Technology
Bus & Motor
CUBESAT 2U, Unknown motor
Mass
3 kg wet, 3 kg dry
Launch date (UTC)
2023-01-03 (3 years ago)
Launch vehicle
FALCON 9
Launch site
Air Force Eastern Test Range (AFETR)
Object type
Payload
Rocket body
Debris
Shape & HBR
Box, 0.1 m
Radar Cross Section
0.025 m², Small (<0.1 m²)

Expand to show TLE details & history
Last TLE update: 10 hours ago

TLE from 10 hours ago
0 KUWAITSAT-1
1 55103U 23001CY  25286.93178916  .00022232  00000-0  59347-3 0  9999
2 55103  97.3603 350.4528 0009266 244.0428 115.9863 15.38087509154591
Epoch: 2025-10-13T22:21Z
TLE epoch observation values (Epoch: 2025-10-13T22:21:46.583Z)
Latitude
Longitude
-7.71878°
Altitude
457.659 km
Speed
7.636 km/s
True Right ascension
23h 21m 48s
True Declination
0° 00' 00"
Sunlit
Object was in full shadow at epoch
Visualization orbit readout
Latitude
Unknown
Longitude
Unknown
Altitude
Unknown
Speed
Unknown
Apparent Right ascension
Unknown
Apparent Declination
Unknown
Sunlit
N/A
Visualization observer readout
Local Sidereal Time
02:49:06
Azimuth
Unknown
Elevation
Unknown
Doppler factor
Unknown
Orbital elements
Apogee altitude
455.031 km
Perigee altitude
442.379 km
Semi-major axis
6,826.842 km
Eccentricity
0.00093
Inclination
97.3603°
RAAN
350.4528°
Arg. of periapsis
244.0428°
True anomaly
116.0817°
Mean anomaly
115.9863°
Eccentric anomaly
116.034°
Mean motion
3.84781 °/min
Orbital period
93.56 mins
BSTAR
0.00059347
Loading maneuver chart data...
Computing Atmospheric mass density...
Loading historical data...
Loading historical data...
Loading historical data...
Loading historical data...
Loading historical data...
Loading historical data...
Loading historical data...

Documentation

Showing up to 5 results
|